User: anonymous   Login
Location: Chervonnoye
(48.6000°N, 34.4000°E)
Time: 13:40:55
(UTC+00:00)
Language:

deb Kosmos-2237 - Orbit

View from above orbital plane
View from above orbital plane
View from above satellite
View from above satellite

Ground track
Ground track

The orbit data is extracted from the following two-line orbital elements,

1 22608U 93016S   21206.10258020 -.00000041  00000-0  31254-5 0  9992
2 22608  71.0046 135.3470 0133028 259.2304 113.7056 13.84526742431657
Epoch (UTC): 25 July 2021 02:27:42
Eccentricity: 0.0133028
inclination: 71.0046°
perigee height: 850 km
apogee height: 1045 km
right ascension of ascending node: 135.3470°
argument of perigee: 259.2304°
revolutions per day: 13.84526742
mean anomaly at epoch: 113.7056°
orbit number at epoch: 43165

The dashed part of the orbit path shows where the satellite is in the earth's shadow,  

DLR